STARLINK-32186, 60412

Orbit data source: Space-Track

STARLINK-32186, 60412 is a payload satellite owned by SpaceX/Seattle (US) in LEO that was launched on Sat, 10 Aug 2024 UTC via an FALCON 9 launch vehicle from the Air Force Eastern Test Range (AFETR). Payload-class satellites include a variety of spacecraft equipped with specific instruments for various scientific and technological missions. These include communications satellites like Starlink; space stations such as the ISS; scientific satellites like the Hubble; Earth observation satellites from companies like Planet Labs, Umbra, and HawkEye 360; GPS; miniature CubeSats for education and research; and military/defense satellites.

Loading next visibility...
Identifier
60412, 2024-141Q
Orbit
LEO
Last TLE update
14 hours ago
Origin
Manufacturer
SpaceX/Seattle
Mission
Operational Commercial Communications
Bus & Motor
STARLINK V2M, Unknown motor
Mass
730 kg wet, ~700 kg dry
Launch date (UTC)
2024-08-10 (11 months ago)
Launch vehicle
FALCON 9
Launch site
Air Force Eastern Test Range (AFETR)
Object type
Payload
Rocket body
Debris
Shape & HBR
Box + 2 Pan, 29 m
Radar Cross Section
36.964 m², Large (>1 m²)

Expand to show TLE details & history

TLE from 14 hours ago
0 STARLINK-32186
1 60412U 24141Q   25186.57433342 -.00000162  00000-0  66606-5 0  9997
2 60412  53.1606 310.5915 0001087  78.7069 281.4054 15.30188783 51681
Epoch: 2025-07-05T13:47Z
TLE epoch observation values (Epoch: 2025-07-05T13:47:02.407Z)
Latitude
-0.00001°
Longitude
-179.97896°
Altitude
476.001 km
Speed
7.629 km/s
True Right ascension
20h 42m 21s
True Declination
0° 00' 00"
Sunlit
Object was in full shadow at epoch
Visualization orbit readout
Latitude
-48.76364°
Longitude
55.59028°
Altitude
492.737 km
Speed
7.618 km/s
Apparent Right ascension
07h 31m 36s
Apparent Declination
-68° 49' 28"
Sunlit
Object is in daylight
Visualization observer readout
Local Sidereal Time
15:21:38
Azimuth
207.781° SW
Elevation
-46.578°
Doppler factor
1
Orbital elements
Apogee altitude
476.25 km
Perigee altitude
474.76 km
Semi-major axis
6,853.642 km
Eccentricity
0.00011
Inclination
53.1606°
RAAN
310.5915°
Arg. of periapsis
78.7069°
True anomaly
Unknown
Mean anomaly
281.4054°
Eccentric anomaly
Unknown
Mean motion
3.82526 °/min
Orbital period
94.11 mins
BSTAR
0.0000066606
Loading maneuver chart data...
Loading SW <> Apogee altitude chart data...
Loading historical data...
Loading historical data...
Loading historical data...
Loading historical data...
Loading historical data...
Loading historical data...
Loading historical data...

STARLINK-32186 Visibility forecast

Observer location: undefined°, undefined°

Span
Click to sort rows by Start time (UTC) header in descending order
Start Az.
Max El. time (UTC)
Max El. Az.
Max El.
End time (UTC)
End Az.
5 mins2025-07-06 10:19:38.343Z193.21° SSW2025-07-06 10:21:38.343Z152.192° SSE29.002°2025-07-06 10:24:38.343Z72.597° E
4 mins2025-07-06 11:58:38.343Z289.496° WNW2025-07-06 11:59:38.343Z315.684° NNW26.094°2025-07-06 12:02:38.343Z27.077° NE
5 mins2025-07-06 16:54:38.343Z333.374° NNW2025-07-06 16:56:38.343Z18.186° NNE28.798°2025-07-06 16:59:38.343Z93.039° ESE
5 mins2025-07-06 18:32:38.343Z280.267° WNW2025-07-06 18:34:38.343Z235.031° WSW26.182°2025-07-06 18:37:38.343Z169.955° S
|